Saint Petersburg, FL

4:29 AM EST on February 07, 2016 (GMT -0500)
Whitted

Weather History for KSPG - September, 2014

Change the Weather History Date:

Monday, September 8, 2014

  Actual Average Record
Temperature  
Mean Temperature 82 °F -  
Max Temperature 86 °F 89 °F 94 °F (1951)
Min Temperature 78 °F 75 °F 70 °F (1950)
Cooling Degree Days 17    
Growing Degree Days 32 (Base 50)    
Moisture  
Dew Point 73 °F    
Average Humidity 74    
Maximum Humidity 82    
Minimum Humidity 61    
Precipitation  
Precipitation 0.00 in - - ()
Sea Level Pressure  
Sea Level Pressure 30.02 in    
Wind  
Wind Speed 11 mph (South)    
Max Wind Speed 15 mph    
Max Gust Speed -    
Visibility 10 miles    
Events      
Averages and records for this station are not official NWS values.
T = Trace of Precipitation, MM = Missing Value Source: NWS Daily Summary

Daily Weather History Graph

Daily Weather History Graph

Search for Another Location

Airport or City:

Trip Planner

Search our weather history database for the weather conditions in past years. The results will help you decide how hot, cold, wet, or windy it might be!

Date:

Astronomy

Sep. 08, 2014 Rise Set
Actual Time 7:12 AM EDT 7:43 PM EDT
Civil Twilight 6:48 AM EDT 8:06 PM EDT
Nautical Twilight 6:21 AM EDT 8:34 PM EDT
Astronomical Twilight 5:53 AM EDT 9:02 PM EDT
Moon 7:25 PM EDT (9/8) 6:36 AM EDT (9/8)
Length of Visible Light 13h 17m
Length of Day
12h 30m
Full, 100% of the Moon is Illuminated
Sep 8
Full
Sep 8
Full
Sep 15
Last Quarter
Sep 24
New
Oct 1
First Quarter

Hourly Weather History & Observations

Time (EDT) Temp. Heat Index Dew Point Humidity Pressure Visibility Wind Dir Wind Speed Gust Speed Precip Events Conditions
12:53 AM 79.0 °F - 73.0 °F 82% 30.01 in 10.0 mi South 11.5 mph - N/A   Clear
1:53 AM 79.0 °F - 73.0 °F 82% 30.00 in 10.0 mi South 8.1 mph - N/A   Clear
2:53 AM 79.0 °F - 72.0 °F 79% 29.98 in 10.0 mi South 12.7 mph - N/A   Clear
3:53 AM 78.1 °F - 72.0 °F 81% 29.98 in 10.0 mi South 15.0 mph - N/A   Clear
5:53 AM 78.1 °F - 72.0 °F 81% 29.99 in 10.0 mi South 12.7 mph - N/A   Partly Cloudy
6:53 AM 78.1 °F - 72.0 °F 81% 30.00 in 10.0 mi SSE 6.9 mph - N/A   Clear
8:53 AM 79.0 °F - 73.0 °F 82% 30.01 in 10.0 mi North - - N/A   Clear
9:53 AM 82.0 °F 88.6 °F 75.0 °F 79% 30.04 in 10.0 mi North - - N/A   Clear
10:53 AM 82.0 °F 87.4 °F 73.0 °F 74% 30.06 in 10.0 mi North - - N/A   Clear
11:53 AM 84.0 °F 91.2 °F 73.9 °F 72% 30.05 in 10.0 mi North - - N/A   Clear
12:53 PM 84.9 °F 90.7 °F 72.0 °F 65% 30.05 in 10.0 mi North - - N/A   Clear
1:53 PM 84.0 °F 91.2 °F 73.9 °F 72% 30.04 in 10.0 mi North - - N/A   Scattered Clouds
2:10 PM 84.0 °F 91.2 °F 73.9 °F 72% 30.03 in 10.0 mi North - - N/A   Mostly Cloudy
2:17 PM 84.0 °F 91.2 °F 73.9 °F 72% 30.03 in 10.0 mi North - - N/A   Mostly Cloudy
2:53 PM 84.0 °F 91.2 °F 73.9 °F 72% 30.01 in 10.0 mi North - - N/A   Partly Cloudy
3:53 PM 84.0 °F 89.6 °F 72.0 °F 67% 29.98 in 10.0 mi North - - N/A   Clear
4:53 PM 84.9 °F 90.7 °F 72.0 °F 65% 29.97 in 10.0 mi North - - N/A   Clear
5:53 PM 86.0 °F 91.5 °F 71.1 °F 61% 29.99 in 10.0 mi North - - N/A   Clear
6:53 PM 84.0 °F 91.2 °F 73.9 °F 72% 29.99 in 10.0 mi North - - N/A   Scattered Clouds
7:53 PM 82.0 °F 86.7 °F 72.0 °F 71% 30.01 in 10.0 mi North - - N/A   Partly Cloudy
8:53 PM 81.0 °F 85.2 °F 72.0 °F 74% 30.02 in 10.0 mi North - - N/A   Clear
9:53 PM 81.0 °F 85.2 °F 72.0 °F 74% 30.04 in 10.0 mi North - - N/A   Clear
10:53 PM 80.1 °F 83.8 °F 72.0 °F 76% 30.05 in 10.0 mi North - - N/A   Clear
11:53 PM 80.1 °F 84.2 °F 73.0 °F 79% 30.05 in 10.0 mi North - - N/A   Clear